Mount Airy, NC

12:27 PM EDT on October 22, 2017 (GMT -0400)
Mount Airy-Surry County

Weather History for KMWK - November, 2013

Change the Weather History Date:

Monday, November 25, 2013

  Actual Average (KINT) Record (KINT)
Temperature  
Mean Temperature 28 °F -  
Max Temperature 36 °F 55 °F 78 °F (1973)
Min Temperature 19 °F 37 °F 7 °F (1970)
Degree Days  
Heating Degree Days 38    
Moisture  
Dew Point 7 °F    
Average Humidity 40    
Maximum Humidity 74    
Minimum Humidity 25    
Precipitation  
Precipitation 0.01 in - - ()
Sea Level Pressure  
Sea Level Pressure 30.43 in    
Wind  
Wind Speed 1 mph (South)    
Max Wind Speed 8 mph    
Max Gust Speed -    
Visibility 10 miles    
Events Rain    
Averages and records for this station are not official NWS values.
T = Trace of Precipitation, MM = Missing Value Source: NWS Daily Summary

Daily Weather History Graph

Daily Weather History Graph

Search for Another Location

Airport or City:

Trip Planner

Search our weather history database for the weather conditions in past years. The results will help you decide how hot, cold, wet, or windy it might be!

Date:

Astronomy

Nov. 25, 2013 Rise Set
Actual Time 7:09 AM EST 5:08 PM EST
Civil Twilight 6:41 AM EST 5:36 PM EST
Nautical Twilight 6:10 AM EST 6:08 PM EST
Astronomical Twilight 5:39 AM EST 6:39 PM EST
Moon No Moon Rise 12:32 PM EST (11/25)
Length of Visible Light 10h 54m
Length of Day
9h 58m
Waning Gibbous, 51% of the Moon is Illuminated
Nov 25
Waning Gibbous
Nov 25
Last Quarter
Dec 2
New
Dec 9
First Quarter
Dec 17
Full

Hourly Weather History & Observations

Time (EST) Temp. Windchill Dew Point Humidity Pressure Visibility Wind Dir Wind Speed Gust Speed Precip Events Conditions
12:15 AM 25.2 °F - 2.7 °F 38% 30.49 in 10.0 mi Calm Calm - N/A   Clear
12:35 AM 24.8 °F - 2.8 °F 39% 30.48 in 10.0 mi Calm Calm - N/A   Clear
12:55 AM 24.6 °F 20.3 °F 3.7 °F 41% 30.48 in 10.0 mi NW 3.5 mph - N/A   Clear
1:15 AM 24.1 °F - 4.5 °F 43% 30.48 in 10.0 mi Calm Calm - N/A   Clear
1:35 AM 24.4 °F - 4.1 °F 42% 30.48 in 10.0 mi Calm Calm - N/A   Clear
1:55 AM 23.0 °F - 7.2 °F 51% 30.49 in 10.0 mi Calm Calm - N/A   Clear
2:15 AM 23.4 °F - 6.1 °F 48% 30.48 in 10.0 mi Calm Calm - N/A   Clear
2:35 AM 23.7 °F 19.3 °F 6.1 °F 47% 30.47 in 10.0 mi North 3.5 mph - N/A   Clear
2:55 AM 23.9 °F - 5.5 °F 46% 30.46 in 10.0 mi Calm Calm - N/A   Clear
3:15 AM 24.6 °F - 4.1 °F 41% 30.45 in 10.0 mi Calm Calm - N/A   Clear
3:35 AM 23.9 °F - 5.5 °F 46% 30.44 in 10.0 mi Calm Calm - N/A   Clear
3:55 AM 24.4 °F - 4.1 °F 42% 30.45 in 10.0 mi Calm Calm - N/A   Clear
4:15 AM 23.0 °F - 5.9 °F 48% 30.46 in 10.0 mi Calm Calm - N/A   Clear
4:35 AM 22.1 °F - 7.7 °F 54% 30.47 in 10.0 mi Calm Calm - N/A   Clear
4:55 AM 21.2 °F - 8.4 °F 58% 30.47 in 10.0 mi Calm Calm - N/A   Clear
5:15 AM 20.1 °F - 10.0 °F 65% 30.47 in 10.0 mi Calm Calm - N/A   Clear
5:35 AM 19.4 °F - 10.4 °F 68% 30.47 in 10.0 mi Calm Calm - N/A   Clear
5:55 AM 20.3 °F - 9.1 °F 62% 30.47 in 10.0 mi Calm Calm - N/A   Clear
6:15 AM 20.8 °F - 9.7 °F 62% 30.48 in 10.0 mi Calm Calm - N/A   Clear
6:35 AM 20.7 °F - 12.2 °F 70% 30.49 in 10.0 mi Calm Calm - N/A   Clear
6:55 AM 21.2 °F - 10.9 °F 65% 30.49 in 10.0 mi Calm Calm - N/A   Clear
7:15 AM 22.1 °F - 11.3 °F 63% 30.49 in 10.0 mi Calm Calm - N/A   Clear
7:35 AM 23.2 °F - 12.0 °F 62% 30.50 in 10.0 mi Calm Calm - N/A   Clear
7:55 AM 24.6 °F - 12.0 °F 59% 30.49 in 10.0 mi Calm Calm - N/A   Clear
8:15 AM 25.5 °F - 10.6 °F 53% 30.49 in 10.0 mi Calm Calm - N/A   Clear
8:35 AM 26.1 °F - 9.5 °F 50% 30.49 in 10.0 mi Calm Calm - N/A   Clear
8:55 AM 26.6 °F - 9.0 °F 47% 30.50 in 10.0 mi Calm Calm - N/A   Clear
9:15 AM 27.5 °F - 8.8 °F 45% 30.50 in 10.0 mi Calm Calm - N/A   Clear
9:35 AM 28.6 °F - 7.7 °F 41% 30.50 in 10.0 mi Calm Calm - N/A   Clear
9:55 AM 30.0 °F 26.5 °F 7.0 °F 38% 30.49 in 10.0 mi SSW 3.5 mph - N/A   Clear
10:15 AM 31.5 °F 28.1 °F 6.4 °F 35% 30.48 in 10.0 mi SSE 3.5 mph - N/A   Clear
10:35 AM 31.6 °F 28.3 °F 6.6 °F 35% 30.49 in 10.0 mi ESE 3.5 mph - N/A   Clear
10:55 AM 32.7 °F 29.6 °F 5.0 °F 31% 30.49 in 10.0 mi WSW 3.5 mph - N/A   Clear
11:15 AM 32.4 °F 27.9 °F 4.3 °F 31% 30.48 in 10.0 mi SSW 4.6 mph - N/A   Clear
11:35 AM 33.4 °F 30.4 °F 4.3 °F 29% 30.47 in 10.0 mi WSW 3.5 mph - N/A   Clear
11:55 AM 34.0 °F 27.2 °F 2.7 °F 27% 30.46 in 10.0 mi SSW 8.1 mph - N/A   Clear
12:15 PM 34.3 °F - 3.6 °F 27% 30.45 in 10.0 mi Calm Calm - N/A   Clear
12:35 PM 34.5 °F - 3.2 °F 27% 30.44 in 10.0 mi Calm Calm - N/A   Clear
12:55 PM 35.2 °F - 4.3 °F 27% 30.42 in 10.0 mi Calm Calm - N/A   Clear
1:15 PM 35.1 °F 32.2 °F 3.9 °F 27% 30.41 in 10.0 mi ESE 3.5 mph - N/A   Scattered Clouds
1:35 PM 35.4 °F 32.6 °F 4.1 °F 27% 30.41 in 10.0 mi South 3.5 mph - N/A   Overcast
1:55 PM 35.8 °F 33.0 °F 4.3 °F 27% 30.40 in 10.0 mi SE 3.5 mph - N/A   Overcast
2:15 PM 36.9 °F 33.1 °F 3.7 °F 25% 30.39 in 10.0 mi SSE 4.6 mph - N/A   Overcast
2:35 PM 36.3 °F 32.5 °F 3.2 °F 25% 30.40 in 10.0 mi South 4.6 mph - N/A   Scattered Clouds
2:55 PM 36.9 °F 34.3 °F 3.7 °F 25% 30.39 in 10.0 mi SSW 3.5 mph - N/A   Scattered Clouds
3:15 PM 36.7 °F 32.9 °F 3.9 °F 25% 30.40 in 10.0 mi SSW 4.6 mph - N/A   Scattered Clouds
3:35 PM 36.3 °F - 4.5 °F 26% 30.40 in 10.0 mi Calm Calm - N/A   Clear
3:55 PM 36.5 °F - 5.9 °F 28% 30.40 in 10.0 mi Calm Calm - N/A   Clear
4:15 PM 36.0 °F 33.3 °F 4.5 °F 27% 30.38 in 10.0 mi South 3.5 mph - N/A   Clear
4:35 PM 36.1 °F - 5.5 °F 28% 30.39 in 10.0 mi Calm Calm - N/A   Clear
4:55 PM 36.0 °F - 4.8 °F 27% 30.39 in 10.0 mi Calm Calm - N/A   Scattered Clouds
5:15 PM 35.6 °F - 5.4 °F 28% 30.38 in 10.0 mi Calm Calm - N/A   Mostly Cloudy
5:35 PM 35.6 °F - 5.7 °F 29% 30.38 in 10.0 mi Calm Calm - N/A   Scattered Clouds
5:55 PM 35.6 °F - 6.4 °F 30% 30.38 in 10.0 mi Calm Calm - N/A   Scattered Clouds
6:15 PM 35.4 °F - 7.0 °F 31% 30.37 in 10.0 mi Calm Calm - N/A   Mostly Cloudy
6:35 PM 35.2 °F - 7.7 °F 32% 30.38 in 10.0 mi Calm Calm - N/A   Mostly Cloudy
6:55 PM 35.2 °F - 7.3 °F 31% 30.37 in 10.0 mi Calm Calm - N/A   Overcast
7:15 PM 35.1 °F - 8.4 °F 33% 30.37 in 10.0 mi Calm Calm - N/A   Mostly Cloudy
7:35 PM 35.1 °F - 7.7 °F 32% 30.37 in 10.0 mi Calm Calm - N/A   Scattered Clouds
7:55 PM 35.1 °F - 9.5 °F 35% 30.38 in 10.0 mi Calm Calm - N/A   Mostly Cloudy
8:15 PM 35.2 °F - 8.6 °F 33% 30.37 in 10.0 mi Calm Calm - N/A   Mostly Cloudy
8:35 PM 35.2 °F - 9.3 °F 34% 30.37 in 10.0 mi Calm Calm - N/A   Overcast
8:55 PM 35.6 °F - 9.1 °F 33% 30.37 in 10.0 mi Calm Calm - N/A   Overcast
9:15 PM 35.4 °F - 8.8 °F 33% 30.36 in 10.0 mi Calm Calm - N/A   Overcast
9:35 PM 35.6 °F - 9.3 °F 34% 30.35 in 10.0 mi Calm Calm - N/A   Overcast
9:55 PM 35.6 °F - 10.6 °F 36% 30.35 in 10.0 mi Calm Calm - N/A   Overcast
10:15 PM 35.6 °F - 10.2 °F 35% 30.35 in 10.0 mi Calm Calm - N/A   Overcast
10:35 PM 35.4 °F - 11.7 °F 38% 30.34 in 10.0 mi Calm Calm - N/A   Overcast
10:55 PM 35.6 °F - 11.3 °F 37% 30.34 in 10.0 mi Calm Calm - N/A   Overcast
11:15 PM 35.6 °F - 10.2 °F 35% 30.33 in 10.0 mi Calm Calm - N/A   Overcast
11:35 PM 35.6 °F - 14.0 °F 41% 30.32 in 10.0 mi Calm Calm - N/A Rain Light Rain
11:55 PM 33.3 °F - 25.9 °F 74% 30.33 in 7.0 mi Calm Calm - 0.01 in   Overcast